Weather in Yelets

Russia / Lipetsk Oblast     52°37′27″N   38°30′13″E
temp.,
°C
wind,
m/s
gust,
m/s
humid.,
%
clouds,
%
prec.,
mm/h
press.,
hPa
HPBL,
m
6 march, sat
sat600:00−7wnw239598 0.0 101629
03:00−8nw229399 0.0 101721
06:00−9wnw2291100 0.0 101621
09:00−7wnw3592100 0.0 1017201
12:00−6nw359287 0.0 1018438
15:00−5nnw578593 0.1 1017776
18:00−9wnw469142 0.0 1018118
21:00−11w348921 0.0 101969
7 march, sun
sun700:00−12w46910 0.0 1019102
03:00−13wsw49900 0.0 1018158
06:00−12sw611910 0.0 1016263
09:00−8sw9178340 0.0 1012596
12:00−4sw111878100 0.0 10081014
15:00−2wsw121987100 0.1 10041288
18:00−1wsw111990100 0.6 10011221
21:00−3wnw71396100 1.8 1002680
8 march, mon
mon800:00−6sw3691100 1.5 1002126
03:00−6wsw6148794 1.5 1003411
06:00−7wsw7168725 0.0 1002462
09:00−6w9159033 0.0 10041137
12:00−7wnw8128133 0.0 1006840
15:00−7w6108225 0.0 1009736
18:00−9w410860 0.0 1010238
21:00−11w478815 0.0 1013107
9 march, tue
tue900:00−12w34927 0.0 101439
03:00−13wnw339613 0.0 101428
06:00−14nw229668 0.0 101521
09:00−11n229480 0.1 1016156
12:00−9nne3493100 0.1 1016360
15:00−9n3588100 0.1 1018527
18:00−12n3692100 0.0 1018161
21:00−14nnw349396 0.0 102153
10 march, wed
wed1000:00−17nw34940 0.0 102341
03:00−18nw23966 0.0 102426
06:00−19wnw239531 0.0 102521
09:00−16w239360 0.0 1026108
12:00−12wsw248699 0.0 1025313
15:00−10sw5793100 0.2 1024447
18:00−9wsw51094100 0.6 1022527
21:00−10wsw3994100 0.7 1023248